| time (UTC) | temp C | wind direction | speed KPH | gust KPH | rain 1hr cm | rain 24hr cm | rain mn cm | humidity % | barometer mb |
| 20260504160303 | 25 | 24 | 3.2 | 3.2 | 0.00 | 0.00 | 0.00 | 67 | 1021.7 |
| 20260504150728 | 22 | 347 | 0.0 | 1.6 | 0.00 | 0.00 | 0.00 | 72 | 1022.3 |
| 20260504150225 | 22 | 72 | 8.0 | 9.7 | 0.00 | 0.00 | 0.00 | 72 | 1022.5 |
| 20260504141154 | 21 | 18 | 1.6 | 3.2 | 0.00 | 0.00 | 0.00 | 74 | 1023.0 |
| 20260504140651 | 21 | 335 | 1.6 | 3.2 | 0.00 | 0.00 | 0.00 | 75 | 1023.2 |
| 20260504140146 | 21 | 358 | 1.6 | 1.6 | 0.00 | 0.00 | 0.00 | 75 | 1023.3 |
| 20260504130615 | 18 | 354 | 1.6 | 3.2 | 0.00 | 0.00 | 0.00 | 81 | 1023.8 |
| 20260504130112 | 18 | 44 | 8.0 | 14.5 | 0.00 | 0.00 | 0.00 | 82 | 1023.7 |
| 20260504110456 | 16 | 236 | 8.0 | 11.3 | 0.00 | 0.00 | 0.00 | 89 | 1022.8 |
| 20260504100413 | 15 | 87 | 6.4 | 9.7 | 0.00 | 0.00 | 0.00 | 91 | 1022.6 |
| 20260504081800 | 15 | 116 | 12.9 | 16.1 | 0.00 | 0.00 | 0.00 | 92 | 1021.4 |
| 20260504081256 | 15 | 57 | 8.0 | 11.3 | 0.00 | 0.00 | 0.00 | 93 | 1021.4 |
| 20260504080753 | 15 | 23 | 1.6 | 3.2 | 0.00 | 0.00 | 0.00 | 93 | 1021.1 |
| 20260504080249 | 15 | 87 | 4.8 | 8.0 | 0.00 | 0.00 | 0.00 | 93 | 1021.0 |
| 20260504070217 | 15 | 87 | 14.5 | 16.1 | 0.00 | 0.00 | 0.00 | 92 | 1022.2 |
| 20260504060138 | 15 | 23 | 1.6 | 3.2 | 0.00 | 0.00 | 0.00 | 90 | 1022.3 |
| 20260504050606 | 15 | 140 | 6.4 | 8.0 | 0.00 | 0.00 | 0.00 | 90 | 1022.7 |
| 20260504045600 | 15 | 81 | 22.5 | 27.4 | 0.00 | 0.00 | 0.00 | 89 | 1022.3 |
| 20260504045054 | 15 | 94 | 17.7 | 20.9 | 0.00 | 0.00 | 0.00 | 89 | 1022.7 |
| 20260504044552 | 15 | 53 | 9.7 | 17.7 | 0.00 | 0.00 | 0.00 | 89 | 1022.8 |
| 20260504044049 | 15 | 84 | 8.0 | 9.7 | 0.00 | 0.00 | 0.00 | 89 | 1022.7 |
| 20260504043547 | 15 | 91 | 14.5 | 16.1 | 0.00 | 0.00 | 0.00 | 90 | 1022.9 |
| 20260504043044 | 15 | 101 | 14.5 | 17.7 | 0.00 | 0.00 | 0.00 | 90 | 1022.4 |
| 20260504042541 | 15 | 116 | 17.7 | 20.9 | 0.00 | 0.00 | 0.00 | 90 | 1023.0 |
| 20260504042038 | 15 | 80 | 9.7 | 12.9 | 0.00 | 0.00 | 0.00 | 90 | 1022.8 |
| 20260504041533 | 15 | 88 | 12.9 | 14.5 | 0.00 | 0.00 | 0.00 | 90 | 1022.9 |
| 20260504041029 | 15 | 90 | 6.4 | 9.7 | 0.00 | 0.00 | 0.00 | 90 | 1023.0 |
| 20260504040527 | 15 | 23 | 9.7 | 14.5 | 0.00 | 0.00 | 0.00 | 90 | 1023.2 |
| 20260504040024 | 15 | 36 | 3.2 | 3.2 | 0.00 | 0.00 | 0.00 | 91 | 1023.4 |
| 20260504035521 | 15 | 122 | 4.8 | 11.3 | 0.00 | 0.00 | 0.00 | 91 | 1023.0 |
| 20260504035017 | 15 | 71 | 11.3 | 16.1 | 0.00 | 0.00 | 0.00 | 91 | 1023.2 |
| 20260504034515 | 15 | 25 | 8.0 | 11.3 | 0.00 | 0.00 | 0.00 | 92 | 1023.5 |
| 20260504034012 | 15 | 74 | 9.7 | 12.9 | 0.00 | 0.00 | 0.00 | 92 | 1023.3 |
| 20260504033510 | 15 | 102 | 9.7 | 12.9 | 0.00 | 0.00 | 0.00 | 92 | 1023.4 |
| 20260504033007 | 15 | 88 | 17.7 | 20.9 | 0.00 | 0.00 | 0.00 | 93 | 1023.5 |
| 20260504032503 | 15 | 83 | 6.4 | 9.7 | 0.00 | 0.00 | 0.00 | 93 | 1023.6 |
| 20260504032000 | 15 | 95 | 14.5 | 17.7 | 0.00 | 0.00 | 0.00 | 92 | 1023.7 |
| 20260504031456 | 15 | 74 | 9.7 | 12.9 | 0.00 | 0.00 | 0.00 | 92 | 1023.6 |
| 20260504030954 | 15 | 95 | 9.7 | 14.5 | 0.00 | 0.00 | 0.00 | 92 | 1023.6 |
| 20260504030451 | 15 | 101 | 4.8 | 8.0 | 0.00 | 0.00 | 0.00 | 91 | 1023.8 |
| 20260504025946 | 15 | 22 | 4.8 | 8.0 | 0.00 | 0.03 | 0.03 | 91 | 1023.8 |
| 20260504025444 | 15 | 196 | 6.4 | 8.0 | 0.00 | 0.03 | 0.03 | 91 | 1023.7 |
| 20260504024941 | 15 | 158 | 6.4 | 9.7 | 0.00 | 0.03 | 0.03 | 91 | 1023.7 |
| 20260504024438 | 15 | 76 | 6.4 | 8.0 | 0.00 | 0.03 | 0.03 | 90 | 1023.8 |
| 20260504023934 | 15 | 6 | 4.8 | 4.8 | 0.00 | 0.03 | 0.03 | 90 | 1023.8 |
| 20260504023431 | 15 | 93 | 14.5 | 17.7 | 0.00 | 0.03 | 0.03 | 90 | 1023.8 |
| 20260504022927 | 15 | 353 | 4.8 | 4.8 | 0.00 | 0.03 | 0.03 | 90 | 1023.6 |
| 20260504022423 | 15 | 343 | 3.2 | 3.2 | 0.00 | 0.03 | 0.03 | 90 | 1023.8 |
| 20260504021920 | 15 | 101 | 3.2 | 4.8 | 0.00 | 0.03 | 0.03 | 91 | 1023.9 |
| 20260504021417 | 15 | 99 | 11.3 | 14.5 | 0.00 | 0.03 | 0.03 | 91 | 1023.8 |
| 20260504020914 | 15 | 56 | 3.2 | 8.0 | 0.00 | 0.03 | 0.03 | 91 | 1023.6 |
| 20260504020411 | 15 | 91 | 12.9 | 16.1 | 0.00 | 0.03 | 0.03 | 91 | 1023.9 |
| 20260504015908 | 15 | 92 | 9.7 | 14.5 | 0.00 | 0.03 | 0.03 | 91 | 1024.0 |
| 20260504015403 | 15 | 203 | 4.8 | 8.0 | 0.00 | 0.03 | 0.03 | 91 | 1023.9 |
| 20260504014900 | 15 | 2 | 4.8 | 4.8 | 0.00 | 0.03 | 0.03 | 91 | 1023.9 |
| 20260504014355 | 15 | 148 | 11.3 | 12.9 | 0.00 | 0.03 | 0.03 | 91 | 1024.1 |
| 20260504013853 | 15 | 220 | 4.8 | 4.8 | 0.00 | 0.03 | 0.03 | 91 | 1024.0 |
| 20260504013351 | 15 | 99 | 11.3 | 12.9 | 0.00 | 0.03 | 0.03 | 91 | 1024.0 |
| 20260504012847 | 15 | 139 | 4.8 | 11.3 | 0.00 | 0.03 | 0.03 | 91 | 1024.0 |
| 20260504012345 | 15 | 206 | 4.8 | 9.7 | 0.00 | 0.03 | 0.03 | 91 | 1024.1 |
| 20260504011842 | 15 | 153 | 9.7 | 11.3 | 0.00 | 0.03 | 0.03 | 91 | 1024.1 |
| 20260504011339 | 15 | 118 | 8.0 | 11.3 | 0.00 | 0.03 | 0.03 | 91 | 1024.0 |
| 20260504010835 | 15 | 303 | 3.2 | 4.8 | 0.00 | 0.03 | 0.03 | 91 | 1024.3 |
| 20260504010330 | 15 | 140 | 4.8 | 8.0 | 0.00 | 0.03 | 0.03 | 91 | 1024.2 |
| 20260504005827 | 15 | 134 | 4.8 | 4.8 | 0.00 | 0.03 | 0.03 | 91 | 1024.0 |
| 20260504005324 | 15 | 144 | 9.7 | 11.3 | 0.00 | 0.03 | 0.03 | 91 | 1024.5 |
| 20260504004822 | 15 | 120 | 4.8 | 8.0 | 0.00 | 0.03 | 0.03 | 91 | 1024.5 |
| 20260504004319 | 15 | 142 | 9.7 | 12.9 | 0.00 | 0.03 | 0.03 | 91 | 1024.1 |
| 20260504003815 | 15 | 238 | 9.7 | 12.9 | 0.00 | 0.03 | 0.03 | 92 | 1024.5 |
| 20260504003313 | 15 | 124 | 8.0 | 9.7 | 0.00 | 0.03 | 0.03 | 92 | 1024.3 |
| 20260504002809 | 15 | 40 | 3.2 | 4.8 | 0.00 | 0.03 | 0.03 | 93 | 1024.2 |
| 20260504002306 | 14 | 213 | 8.0 | 11.3 | 0.00 | 0.03 | 0.03 | 93 | 1024.3 |
| 20260504001804 | 14 | 85 | 6.4 | 9.7 | 0.00 | 0.03 | 0.03 | 94 | 1024.1 |
| 20260504001301 | 14 | 221 | 9.7 | 14.5 | 0.00 | 0.03 | 0.03 | 95 | 1024.3 |
| 20260504000757 | 14 | 143 | 4.8 | 24.1 | 0.00 | 0.03 | 0.03 | 97 | 1024.2 |
| 20260504000254 | 14 | 87 | 6.4 | 11.3 | 0.00 | 0.03 | 0.03 | 98 | 1024.3 |
| 20260503235752 | 14 | 116 | 6.4 | 9.7 | 0.00 | 0.03 | 0.03 | 98 | 1024.3 |
| 20260503235249 | 14 | 110 | 11.3 | 14.5 | 0.00 | 0.03 | 0.03 | 98 | 1024.5 |
| 20260503234747 | 14 | 209 | 11.3 | 20.9 | 0.00 | 0.03 | 0.03 | 98 | 1024.1 |
| 20260503234245 | 14 | 123 | 6.4 | 9.7 | 0.00 | 0.03 | 0.03 | 98 | 1024.7 |
| 20260503233742 | 14 | 272 | 9.7 | 12.9 | 0.00 | 0.03 | 0.03 | 98 | 1024.2 |
| 20260503233238 | 14 | 206 | 8.0 | 12.9 | 0.00 | 0.03 | 0.03 | 97 | 1024.3 |
| 20260503232735 | 14 | 188 | 3.2 | 4.8 | 0.00 | 0.03 | 0.03 | 97 | 1024.5 |
| 20260503232232 | 14 | 175 | 4.8 | 9.7 | 0.00 | 0.03 | 0.03 | 97 | 1024.2 |
| 20260503231730 | 14 | 318 | 4.8 | 8.0 | 0.00 | 0.03 | 0.03 | 97 | 1024.5 |
| 20260503231226 | 14 | 78 | 6.4 | 11.3 | 0.00 | 0.03 | 0.03 | 98 | 1024.5 |
| 20260503230722 | 14 | 150 | 8.0 | 11.3 | 0.00 | 0.03 | 0.03 | 98 | 1024.2 |
| 20260503230220 | 14 | 119 | 14.5 | 20.9 | 0.00 | 0.03 | 0.03 | 97 | 1024.1 |
| 20260503225717 | 14 | 77 | 4.8 | 8.0 | 0.00 | 0.03 | 0.03 | 98 | 1024.2 |
| 20260503225217 | 14 | 162 | 8.0 | 12.9 | 0.00 | 0.03 | 0.03 | 98 | 1024.0 |
| 20260503224715 | 14 | 122 | 14.5 | 20.9 | 0.00 | 0.03 | 0.03 | 98 | 1024.2 |
| 20260503224213 | 14 | 218 | 3.2 | 4.8 | 0.00 | 0.03 | 0.03 | 98 | 1024.0 |
| 20260503223710 | 15 | 167 | 11.3 | 14.5 | 0.00 | 0.03 | 0.03 | 98 | 1024.1 |
| 20260503223207 | 15 | 184 | 8.0 | 11.3 | 0.00 | 0.03 | 0.03 | 98 | 1024.1 |
| 20260503222704 | 15 | 63 | 3.2 | 3.2 | 0.00 | 0.03 | 0.03 | 98 | 1023.9 |
| 20260503222201 | 15 | 117 | 6.4 | 9.7 | 0.00 | 0.03 | 0.03 | 97 | 1023.8 |
| 20260503221700 | 15 | 331 | 9.7 | 16.1 | 0.00 | 0.03 | 0.03 | 96 | 1023.7 |
| 20260503221157 | 15 | 107 | 4.8 | 9.7 | 0.00 | 0.03 | 0.03 | 96 | 1023.5 |
| 20260503220653 | 15 | 180 | 8.0 | 11.3 | 0.00 | 0.03 | 0.03 | 95 | 1023.6 |
| 20260503220150 | 15 | 71 | 8.0 | 12.9 | 0.00 | 0.03 | 0.03 | 95 | 1023.6 |
| 20260503215647 | 15 | 91 | 11.3 | 14.5 | 0.00 | 0.03 | 0.03 | 96 | 1023.6 |
| 20260503215143 | 15 | 279 | 4.8 | 4.8 | 0.00 | 0.03 | 0.03 | 96 | 1023.7 |
| 20260503214642 | 14 | 164 | 12.9 | 16.1 | 0.00 | 0.03 | 0.03 | 97 | 1023.7 |
| 20260503214138 | 14 | 32 | 4.8 | 8.0 | 0.00 | 0.03 | 0.03 | 97 | 1023.4 |
| 20260503213632 | 14 | 13 | 4.8 | 9.7 | 0.00 | 0.03 | 0.03 | 98 | 1023.7 |
| 20260503213128 | 14 | 137 | 3.2 | 3.2 | 0.00 | 0.03 | 0.03 | 98 | 1023.4 |
| 20260503212625 | 14 | 83 | 1.6 | 3.2 | 0.00 | 0.03 | 0.03 | 98 | 1023.4 |
| 20260503212123 | 14 | 17 | 3.2 | 4.8 | 0.00 | 0.03 | 0.03 | 98 | 1023.6 |
| 20260503211620 | 14 | 345 | 3.2 | 4.8 | 0.00 | 0.03 | 0.03 | 98 | 1023.3 |
| 20260503211115 | 14 | 111 | 3.2 | 3.2 | 0.00 | 0.03 | 0.03 | 98 | 1023.2 |
| 20260503210613 | 15 | 80 | 4.8 | 4.8 | 0.00 | 0.03 | 0.03 | 98 | 1023.3 |
| 20260503210109 | 14 | 104 | 4.8 | 8.0 | 0.00 | 0.03 | 0.03 | 98 | 1023.4 |
| 20260503205605 | 15 | 105 | 11.3 | 16.1 | 0.00 | 0.03 | 0.03 | 97 | 1023.5 |
| 20260503205101 | 15 | 86 | 3.2 | 3.2 | 0.00 | 0.03 | 0.03 | 97 | 1023.5 |
| 20260503204558 | 15 | 88 | 8.0 | 11.3 | 0.00 | 0.03 | 0.03 | 96 | 1023.3 |
| 20260503204055 | 15 | 0 | 4.8 | 9.7 | 0.00 | 0.03 | 0.03 | 96 | 1023.5 |
| 20260503203552 | 15 | 51 | 6.4 | 9.7 | 0.00 | 0.03 | 0.03 | 96 | 1023.3 |
| 20260503203049 | 15 | 71 | 3.2 | 4.8 | 0.00 | 0.03 | 0.03 | 96 | 1023.3 |
| 20260503202547 | 15 | 164 | 9.7 | 11.3 | 0.00 | 0.03 | 0.03 | 96 | 1023.4 |
| 20260503202045 | 15 | 233 | 4.8 | 4.8 | 0.00 | 0.03 | 0.03 | 95 | 1023.3 |
| 20260503201543 | 15 | 225 | 4.8 | 4.8 | 0.00 | 0.03 | 0.03 | 95 | 1023.3 |
| 20260503201040 | 15 | 3 | 6.4 | 11.3 | 0.00 | 0.03 | 0.03 | 95 | 1023.3 |
| 20260503200536 | 15 | 119 | 8.0 | 11.3 | 0.00 | 0.03 | 0.03 | 95 | 1023.0 |
| 20260503200033 | 15 | 107 | 11.3 | 16.1 | 0.00 | 0.03 | 0.03 | 95 | 1023.3 |
| 20260503195530 | 15 | 83 | 4.8 | 4.8 | 0.00 | 0.03 | 0.03 | 95 | 1023.5 |
| 20260503195027 | 15 | 165 | 3.2 | 8.0 | 0.00 | 0.03 | 0.03 | 96 | 1023.3 |
| 20260503194525 | 15 | 124 | 6.4 | 9.7 | 0.00 | 0.03 | 0.03 | 96 | 1023.2 |
| 20260503194024 | 15 | 98 | 11.3 | 14.5 | 0.00 | 0.03 | 0.03 | 97 | 1023.3 |
| 20260503193521 | 15 | 196 | 4.8 | 8.0 | 0.00 | 0.03 | 0.03 | 98 | 1023.4 |
| 20260503193016 | 15 | 93 | 3.2 | 3.2 | 0.00 | 0.03 | 0.03 | 98 | 1023.2 |
| 20260503192512 | 15 | 148 | 9.7 | 12.9 | 0.00 | 0.03 | 0.03 | 98 | 1023.0 |
| 20260503192008 | 14 | 69 | 4.8 | 4.8 | 0.00 | 0.03 | 0.03 | 98 | 1023.0 |
| 20260503191505 | 14 | 110 | 9.7 | 12.9 | 0.00 | 0.03 | 0.03 | 98 | 1023.2 |
| 20260503191002 | 14 | 186 | 25.7 | 29.0 | 0.00 | 0.03 | 0.03 | 97 | 1022.8 |
| 20260503190459 | 15 | 158 | 27.4 | 32.2 | 0.00 | 0.03 | 0.03 | 96 | 1022.8 |
| 20260503185956 | 15 | 180 | 9.7 | 12.9 | 0.00 | 0.03 | 0.03 | 97 | 1022.9 |
| 20260503185452 | 15 | 111 | 17.7 | 25.7 | 0.00 | 0.03 | 0.03 | 96 | 1022.8 |
| 20260503184952 | 15 | 144 | 17.7 | 24.1 | 0.00 | 0.03 | 0.03 | 94 | 1023.0 |
| 20260503184448 | 15 | 137 | 9.7 | 12.9 | 0.00 | 0.03 | 0.03 | 94 | 1022.7 |
| 20260503183945 | 15 | 152 | 11.3 | 17.7 | 0.00 | 0.03 | 0.03 | 93 | 1022.7 |
| 20260503183441 | 16 | 176 | 12.9 | 16.1 | 0.00 | 0.03 | 0.03 | 91 | 1022.7 |
| 20260503182938 | 16 | 149 | 8.0 | 17.7 | 0.00 | 0.03 | 0.03 | 89 | 1023.0 |
| 20260503182437 | 16 | 315 | 4.8 | 4.8 | 0.00 | 0.03 | 0.03 | 89 | 1022.6 |
| 20260503181934 | 16 | 301 | 4.8 | 8.0 | 0.00 | 0.03 | 0.03 | 89 | 1022.8 |
| 20260503181431 | 16 | 57 | 14.5 | 20.9 | 0.00 | 0.03 | 0.03 | 89 | 1022.8 |
| 20260503180927 | 16 | 64 | 4.8 | 4.8 | 0.00 | 0.03 | 0.03 | 89 | 1022.9 |
| 20260503180427 | 16 | 96 | 8.0 | 12.9 | 0.00 | 0.03 | 0.03 | 89 | 1022.8 |
| 20260503175922 | 16 | 156 | 8.0 | 11.3 | 0.00 | 0.03 | 0.03 | 89 | 1022.8 |
| 20260503175421 | 16 | 91 | 6.4 | 8.0 | 0.00 | 0.03 | 0.03 | 90 | 1023.0 |
| 20260503174916 | 16 | 238 | 9.7 | 12.9 | 0.00 | 0.03 | 0.03 | 90 | 1023.0 |
| 20260503174414 | 15 | 110 | 11.3 | 16.1 | 0.00 | 0.03 | 0.03 | 91 | 1022.9 |
| 20260503173909 | 15 | 187 | 12.9 | 20.9 | 0.00 | 0.03 | 0.03 | 93 | 1023.0 |
| 20260503173405 | 15 | 160 | 14.5 | 16.1 | 0.00 | 0.03 | 0.03 | 93 | 1022.9 |
| 20260503172902 | 16 | 352 | 8.0 | 16.1 | 0.00 | 0.03 | 0.03 | 93 | 1022.8 |
| 20260503172400 | 16 | 174 | 9.7 | 14.5 | 0.00 | 0.03 | 0.03 | 91 | 1023.4 |
| 20260503171855 | 16 | 216 | 6.4 | 9.7 | 0.00 | 0.03 | 0.03 | 91 | 1023.0 |
| 20260503171352 | 16 | 140 | 14.5 | 17.7 | 0.00 | 0.03 | 0.03 | 90 | 1023.0 |
| 20260503170850 | 16 | 124 | 8.0 | 11.3 | 0.00 | 0.03 | 0.03 | 89 | 1023.0 |
| 20260503170346 | 16 | 30 | 4.8 | 9.7 | 0.00 | 0.03 | 0.03 | 89 | 1023.0 |